Home   Weather   Cork   Past weeks

Flag for Ireland Past Weather in Cork, Ireland — Yesterday and Last 2 Weeks

Now
52 °F

Fog.


Feels Like: 51 °F
Forecast: 50 / 55 °F
Wind: 5 mph from Southeast

Location: Cork Airport

Current Time: Dec 8, 2016 at 2:15:48 pm

Latest Report: Dec 8, 2016 at 1:00 pm


Visibility: 0 mi

Pressure: 30.16 "Hg

Humidity: 98%

Dew Point: 52 °F

Location of CorkLocation

Past Weather in Cork — Graph

°F

Cork Temperature Yesterday

Maximum temperature yesterday: 54 °F (at 12:00 pm)
Minimum temperature yesterday: 52 °F (at 11:00 pm)
Average temperature yesterday: 53 °F

High & Low Weather Summary for the Past Weeks

 TemperatureHumidityPressure
High54 °F (Dec 7, 12:00 pm)99% (Dec 5, 7:00 pm)30.61 "Hg (Dec 5, 7:00 pm)
Low31 °F (Nov 25, 6:00 am)66% (Dec 2, 8:00 pm)29.96 "Hg (Dec 7, 8:00 am)
Average43 °F88%30.26 "Hg
* Reported Nov 23 1:00 pm — Dec 8 12:00 pm, Cork, Weather by CustomWeather, © 2016

Note: Actual official high and low records may vary slightly from our data, if they occured in-between our weather recording intervals... More about our weather records

Advertising

Cork Weather History for the Previous 24 Hours

Scroll right to see more
 ConditionsComfort  
Time TempWeatherWind HumidityBarometerVisibility
12:00 pm
Thu, Dec 8
52 °FFog.3 mph97%30.16 "Hg0 mi
11:00 am51 °FFog.5 mph98%30.19 "Hg0 mi
10:00 am49 °FFog.2 mph98%30.17 "Hg1 mi
9:00 am48 °FLow clouds.3 mph98%30.16 "Hg11 mi
8:00 am49 °FLow clouds.3 mph98%30.14 "Hg3 mi
7:00 am48 °FFog.2 mph98%30.12 "Hg4 mi
6:00 am50 °FLow clouds.2 mph98%30.09 "Hg1 mi
5:00 am51 °FLight rain. Low clouds.2 mph98%30.07 "Hg1 mi
4:00 am51 °FRain. Low clouds.5 mph98%30.06 "Hg1 mi
3:00 am51 °FLight rain. Low clouds.1 mph98%30.05 "Hg1 mi
2:00 am51 °FRain. Low clouds.3 mph98%30.05 "Hg1 mi
12:00 am52 °FFog.2 mph97%30.09 "Hg0 mi
11:00 pm
Wed, Dec 7
52 °FFog.3 mph98%30.10 "Hg1 mi
10:00 pm53 °FLight rain. Low clouds.2 mph98%30.09 "Hg1 mi
9:00 pm53 °FLow clouds.5 mph98%30.10 "Hg1 mi
8:00 pm53 °FLow clouds.6 mph98%30.09 "Hg4 mi
7:00 pm53 °FFog.6 mph98%30.08 "Hg10 mi
6:00 pm53 °FDrizzle. Low clouds.6 mph98%30.06 "Hg1 mi
5:00 pm53 °FFog.7 mph98%30.05 "Hg1 mi
4:00 pm53 °FDrizzle. Low clouds.9 mph98%30.02 "Hg1 mi
3:00 pm54 °FFog.10 mph98%30.00 "Hg0 mi
2:00 pm54 °FLight rain. Low clouds.10 mph98%29.99 "Hg1 mi
Weather by CustomWeather, © 2016

See weather overviewHow to use our weather pages